Flight Briefing for CPX105

Departure Arrival
Huntsville International Airport (KHSV)
Click to view FAA NOTAMS
Miami International Airport (KMIA)
Click to view FAA NOTAMS
Departure Time Arrival Time
N/A N/A
Aircraft Distance
B747-400BCF 629nm
Departure METAR Arrival METAR
KHSV 230653Z AUTO 11006KT 10SM CLR 21/16 A3011 RMK AO2 SLP190 T02060161 KMIA 230653Z 09014KT 10SM SCT030TCU BKN038 27/21 A3008 RMK AO2 SLP185 TCU E-SE T02670206
Suggested Route
RMG ATL YANTI Q89 PRMUS OMN HILEY7


View recent IFR Routes data
Notes



Charts and Procedures

Charts for KHSV
No chart available
Charts for KMIA
No chart available

Windy.com Weather Map